Location: Florence
(33.9745°N, 118.2481°W)
Time: 19:41:12
(UTC+00:00)

COSMOS 2455 - Pass Details

Date: 23 March 2023
Orbit: 898 x 911 km, 67.1° (Epoch: 06 June)

Event Time Altitude Azimuth Distance (km) Brightness Sun altitude
Rises 12:42:27 0° 190° (S) 3,503 5.7 -15.3°
Reaches altitude 10° 12:45:00 10° 185° (S) 2,567 5.0 -14.8°
Maximum altitude 12:50:44 52° 111° (ESE) 1,115 3.7 -13.6°
Drops below altitude 10° 12:56:31 10° 36° (NE) 2,589 5.9 -12.4°
Sets 12:59:06 0° 32° (NNE) 3,536 6.6 -11.9°
